カタログに戻る

STARLINK-37031

運用中通信VLEO
NORAD 68172·PAYLOAD·🇺🇸 United States

打ち上げ Mar 14, 2026 から Vandenberg Space Force Base

Loading…

次のパス (今後24時間)

TLE

最新Source: CelesTrak SupGP

元期: Sep 15, 2026, 04:19 UTC

1 68172C 26050F   26258.18034722 -.00019596  00000+0 -57899-3 0  2587
2 68172  53.1566 102.8235 0001313  85.1615  74.8203 15.34398746    12

AllMySatでSTARLINK-37031をリアルタイム追跡

Download on the App Store